Location: *
(48.8667°N, 2.3331°E)
Time: 13:14:53
(UTC+00:00)

BREEZE M DEB (TANK) - Pass Details

Date: 09 April 2020
Orbit: 304 x 11878 km, 49.5° (Epoch: 22 May)

Event Time Altitude Azimuth Distance (km) Brightness Sun altitude
Rises 19:18:24 0° 196° (SSW) 2,196 5.3 -7.8°
Reaches altitude 10° 19:20:09 10° 175° (S) 1,604 4.4 -8.0°
Maximum altitude 19:22:45 21° 122° (ESE) 1,503 3.9 -8.4°
Drops below altitude 10° 19:27:42 10° 75° (ENE) 3,291 5.8 -9.2°
Sets 19:33:31 0° 64° (ENE) 5,757 7.1 -10.1°
